{"data":{"norad_id":46054,"intl_designator":"2020-055AD","name":"STARLINK-1548","alt_names":[],"object_type":"PAYLOAD","status":"ACTIVE","operator":null,"country":"US","launch_date":"2020-08-07","launch_site_code":"AFETR","launch_vehicle":null,"mission":null,"orbit_class":"UNKNOWN","rcs_meters":null,"size_class":null,"mass_kg":null,"dimensions":null,"purposes":["comms"],"wikipedia_slug":null,"has_3d_model":false,"image_url":null,"decayed_at":null,"tle_current":{"epoch":"2026-09-17T10:35:37.546656Z","epoch_age_seconds":286276,"freshness":"STALE","line1":"1 46054U 20055AD  26260.44140679  .00004335  00000+0  15148-3 0  9998","line2":"2 46054  53.1601 301.7192 0001859  88.2890 271.8325 15.31680529338459","mean_motion":15.31680529,"eccentricity":0.0001859,"inclination_deg":53.1601,"raan_deg":301.7192,"arg_perigee_deg":88.289,"mean_anomaly_deg":271.8325,"bstar":0.00015148,"rev_number":33845,"period_min":94.014383073743,"perigee_km":469.52482085478,"apogee_km":472.07125490187,"semimajor_km":6848.9350378783,"source":"CELESTRAK","updated_at":"2026-09-20T09:00:38.462574Z"}}}